Weather History for Chippewa, MI

Change the Weather History Date:

Saturday, October 29, 2011

  Actual Average Record
Temperature  
Mean Temperature 37 °F -  
Max Temperature 46 °F 48 °F 63 °F (1989)
Min Temperature 28 °F 29 °F 15 °F (1978)
Degree Days  
Heating Degree Days 28    
Moisture  
Dew Point 32 °F    
Average Humidity 80    
Maximum Humidity 93    
Minimum Humidity 62    
Precipitation  
Precipitation 0.00 in - - ()
Sea Level Pressure  
Sea Level Pressure 30.03 in    
Wind  
Wind Speed 5 mph (SE)    
Max Wind Speed 12 mph    
Max Gust Speed -    
Visibility 9 miles    
Events      
Averages and records for this station are not official NWS values.
T = Trace of Precipitation, MM = Missing Value Source: NWS Daily Summary

Daily Weather History Graph

Daily Weather History Graph

Search for Another Location

Airport:

Trip Planner

Search our weather history database for the weather conditions in past years. The results will help you decide how hot, cold, wet, or windy it might be!

Date:

Astronomy

Oct. 29, 2011 Rise Set
Actual Time 8:14 AM EDT 6:28 PM EDT
Civil Twilight 7:43 AM EDT 6:59 PM EDT
Nautical Twilight 7:07 AM EDT 7:34 PM EDT
Astronomical Twilight 6:33 AM EDT 8:09 PM EDT
Moon 11:46 AM EDT (10/29) 8:39 PM EDT (10/29)
Length of Visible Light 11h 16m
Length of Day
10h 13m
Waxing Crescent, 11% of the Moon is Illuminated
Oct 29
Waxing Crescent
Nov 2
First Quarter
Nov 10
Full
Nov 18
Last Quarter
Nov 25
New

Hourly Weather History & Observations

Time (EDT) Temp. Windchill Dew Point Humidity Pressure Visibility Wind Dir Wind Speed Gust Speed Precip Events Conditions
12:15 AM 33.8 °F 28.6 °F 28.4 °F 81% 30.04 in 10.0 mi SE 5.8 mph - N/A   Scattered Clouds
12:35 AM 33.8 °F 27.0 °F 28.4 °F 81% 30.04 in 10.0 mi SE 8.1 mph - N/A   Mostly Cloudy
12:55 AM 33.8 °F 27.0 °F 28.4 °F 81% 30.03 in 10.0 mi SE 8.1 mph - N/A   Scattered Clouds
1:15 AM 33.8 °F 27.7 °F 28.4 °F 81% 30.03 in 10.0 mi SE 6.9 mph - N/A   Scattered Clouds
1:35 AM 33.8 °F 27.7 °F 28.4 °F 81% 30.02 in 10.0 mi SE 6.9 mph - N/A   Mostly Cloudy
1:55 AM 32.0 °F 28.7 °F 28.4 °F 87% 30.02 in 10.0 mi ESE 3.5 mph - N/A   Partly Cloudy
2:35 AM 32.0 °F 27.5 °F 28.4 °F 87% 30.02 in 10.0 mi ESE 4.6 mph - N/A   Scattered Clouds
2:55 AM 33.8 °F 29.6 °F 28.4 °F 81% 30.01 in 10.0 mi ESE 4.6 mph - N/A   Partly Cloudy
3:15 AM 32.0 °F 26.4 °F 28.4 °F 87% 30.01 in 10.0 mi ESE 5.8 mph - N/A   Clear
3:35 AM 32.0 °F 26.4 °F 30.2 °F 93% 30.01 in 10.0 mi East 5.8 mph - N/A   Clear
3:55 AM 33.8 °F 28.6 °F 30.2 °F 87% 30.01 in 10.0 mi ESE 5.8 mph - N/A   Clear
4:15 AM 30.2 °F 24.3 °F 28.4 °F 93% 30.01 in 10.0 mi ESE 5.8 mph - N/A   Clear
4:35 AM 32.0 °F 26.4 °F 28.4 °F 87% 30.01 in 10.0 mi ESE 5.8 mph - N/A   Scattered Clouds
4:55 AM 32.0 °F 26.4 °F 28.4 °F 87% 30.00 in 10.0 mi ESE 5.8 mph - N/A   Partly Cloudy
5:15 AM 32.0 °F 26.4 °F 28.4 °F 87% 30.00 in 10.0 mi ESE 5.8 mph - N/A   Partly Cloudy
5:35 AM 32.0 °F 28.7 °F 28.4 °F 87% 30.00 in 10.0 mi ESE 3.5 mph - N/A   Clear
6:35 AM 32.0 °F - 28.4 °F 87% 30.00 in 5.0 mi Calm Calm - N/A   Clear
6:55 AM 30.2 °F 26.7 °F 26.6 °F 86% 30.00 in 9.0 mi ESE 3.5 mph - N/A   Clear
7:15 AM 32.0 °F 27.5 °F 28.4 °F 87% 30.00 in 3.0 mi ESE 4.6 mph - N/A   Clear
7:35 AM 30.2 °F 26.7 °F 28.4 °F 93% 30.01 in 0.8 mi ESE 3.5 mph - N/A   Unknown
7:55 AM 30.2 °F 26.7 °F 28.4 °F 93% 30.01 in 0.5 mi ESE 3.5 mph - N/A   Unknown
8:15 AM 30.2 °F 25.4 °F 26.6 °F 86% 30.01 in 3.0 mi NNE 4.6 mph - N/A   Clear
8:35 AM 28.4 °F 24.6 °F 26.6 °F 93% 30.01 in 1.8 mi NNE 3.5 mph - N/A   Scattered Clouds
8:55 AM 28.4 °F - 26.6 °F 93% 30.02 in 3.0 mi Calm Calm - N/A   Mostly Cloudy
9:55 AM 33.8 °F 28.6 °F 30.2 °F 87% 30.03 in 0.8 mi East 5.8 mph - N/A   Overcast
10:15 AM 35.6 °F 29.9 °F 33.8 °F 93% 30.03 in 3.0 mi East 6.9 mph - N/A   Scattered Clouds
10:35 AM 37.4 °F 32.8 °F 33.8 °F 87% 30.03 in 10.0 mi East 5.8 mph - N/A   Partly Cloudy
10:55 AM 37.4 °F 33.8 °F 35.6 °F 93% 30.03 in 10.0 mi ESE 4.6 mph - N/A   Clear
11:15 AM 39.2 °F 37.0 °F 35.6 °F 87% 30.03 in 10.0 mi East 3.5 mph - N/A   Clear
11:35 AM 41.0 °F 39.0 °F 35.6 °F 81% 30.04 in 10.0 mi East 3.5 mph - N/A   Partly Cloudy
11:55 AM 42.8 °F 38.6 °F 35.6 °F 76% 30.04 in 10.0 mi SE 6.9 mph - N/A   Partly Cloudy
12:15 PM 42.8 °F 40.1 °F 35.6 °F 76% 30.04 in 10.0 mi ESE 4.6 mph - N/A   Scattered Clouds
12:35 PM 44.6 °F 41.4 °F 37.4 °F 76% 30.04 in 10.0 mi ESE 5.8 mph - N/A   Mostly Cloudy
1:15 PM 44.6 °F 40.7 °F 35.6 °F 71% 30.04 in 10.0 mi SSE 6.9 mph - N/A   Mostly Cloudy
1:35 PM 46.4 °F 41.1 °F 35.6 °F 66% 30.03 in 10.0 mi SSE 11.5 mph - N/A   Mostly Cloudy
1:55 PM 46.4 °F 43.5 °F 35.6 °F 66% 30.02 in 10.0 mi South 5.8 mph - N/A   Scattered Clouds
2:15 PM 46.4 °F 42.4 °F 35.6 °F 66% 30.02 in 10.0 mi SE 8.1 mph - N/A   Scattered Clouds
2:35 PM 44.6 °F 40.2 °F 35.6 °F 71% 30.02 in 10.0 mi East 8.1 mph - N/A   Scattered Clouds
2:55 PM 44.6 °F 41.4 °F 35.6 °F 71% 30.02 in 10.0 mi ESE 5.8 mph - N/A   Overcast
3:35 PM 44.6 °F 41.4 °F 35.6 °F 71% 30.02 in 10.0 mi South 5.8 mph - N/A   Overcast
4:35 PM 46.4 °F 42.4 °F 33.8 °F 62% 30.03 in 10.0 mi South 8.1 mph - N/A   Overcast
4:55 PM 46.4 °F 43.5 °F 33.8 °F 62% 30.03 in 10.0 mi South 5.8 mph - N/A   Overcast
5:15 PM 46.4 °F 44.3 °F 33.8 °F 62% 30.04 in 10.0 mi South 4.6 mph - N/A   Overcast
5:35 PM 46.4 °F 44.3 °F 33.8 °F 62% 30.04 in 10.0 mi SSE 4.6 mph - N/A   Overcast
5:55 PM 46.4 °F 44.3 °F 33.8 °F 62% 30.04 in 10.0 mi SSE 4.6 mph - N/A   Overcast
6:15 PM 44.6 °F 40.7 °F 33.8 °F 66% 30.04 in 10.0 mi SSE 6.9 mph - N/A   Overcast
6:35 PM 42.8 °F 40.1 °F 33.8 °F 70% 30.05 in 10.0 mi South 4.6 mph - N/A   Overcast
6:55 PM 42.8 °F 41.1 °F 33.8 °F 70% 30.06 in 10.0 mi SW 3.5 mph - N/A   Mostly Cloudy
7:35 PM 41.0 °F 39.0 °F 33.8 °F 76% 30.07 in 10.0 mi SW 3.5 mph - N/A   Mostly Cloudy
7:55 PM 41.0 °F - 33.8 °F 76% 30.08 in 10.0 mi Calm Calm - N/A   Overcast
8:15 PM 37.4 °F - 32.0 °F 81% 30.09 in 10.0 mi Calm Calm - N/A   Mostly Cloudy
8:35 PM 39.2 °F 37.0 °F 32.0 °F 75% 30.08 in 10.0 mi South 3.5 mph - N/A   Overcast
8:55 PM 35.6 °F 32.8 °F 30.2 °F 81% 30.09 in 10.0 mi SE 3.5 mph - N/A   Overcast
9:15 PM 35.6 °F 32.8 °F 30.2 °F 81% 30.08 in 10.0 mi ESE 3.5 mph - N/A   Mostly Cloudy
9:35 PM 37.4 °F 32.8 °F 32.0 °F 81% 30.08 in 10.0 mi SE 5.8 mph - N/A   Partly Cloudy
9:55 PM 37.4 °F 33.8 °F 33.8 °F 87% 30.08 in 10.0 mi SE 4.6 mph - N/A   Clear
10:15 PM 37.4 °F - 33.8 °F 87% 30.09 in 10.0 mi Calm Calm - N/A   Clear
10:35 PM 35.6 °F - 33.8 °F 93% 30.09 in 8.0 mi Calm Calm - N/A   Partly Cloudy
11:15 PM 35.6 °F 29.9 °F 30.2 °F 81% 30.08 in 4.0 mi SSE 6.9 mph - N/A   Clear
11:35 PM 35.6 °F 31.7 °F 30.2 °F 81% 30.08 in 6.0 mi SE 4.6 mph - N/A   Clear
11:55 PM 33.8 °F 30.8 °F 32.0 °F 93% 30.08 in 5.0 mi ESE 3.5 mph - N/A   Clear